TimeEST,TemperatureF,Dew PointF,Humidity,Sea Level PressureIn,VisibilityMPH,Wind Direction,Wind SpeedMPH,Gust SpeedMPH,PrecipitationIn,Events,Conditions,WindDirDegrees,DateUTC
12:00 AM,62,53,65,30.05,19,NW,5.8,,,,Partly Cloudy,310,2013-03-25 13:00:00
12:00 AM,62.6,53.6,72,30.04,-9999.0,NW,5.8,-,N/A,,Clear,310,2013-03-25 13:00:00
12:30 AM,60.8,53.6,77,30.04,-9999.0,NW,1.2,-,N/A,,Clear,310,2013-03-25 13:30:00
1:00 AM,60.8,53.6,77,30.01,-9999.0,NW,5.8,-,N/A,,Clear,310,2013-03-25 14:00:00
1:30 AM,59.0,53.6,82,30.01,-9999.0,North,5.8,-,N/A,,Clear,360,2013-03-25 14:30:00
2:00 AM,60,54,74,30.00,,North,5.8,,,,,0,2013-03-25 15:00:00
2:00 AM,60.8,53.6,77,30.01,-9999.0,North,5.8,-,N/A,,Clear,360,2013-03-25 15:00:00
2:30 AM,60.8,53.6,77,29.98,-9999.0,NE,3.5,-,N/A,,Clear,40,2013-03-25 15:30:00
3:00 AM,60,54,76,29.99,19,NNE,5.8,,,,Partly Cloudy,30,2013-03-25 16:00:00
3:00 AM,60.8,53.6,77,29.98,-9999.0,NNE,5.8,-,N/A,,Clear,30,2013-03-25 16:00:00
3:30 AM,59.0,53.6,82,29.98,-9999.0,NW,4.6,-,N/A,,Clear,320,2013-03-25 16:30:00
4:00 AM,59.0,53.6,82,29.98,-9999.0,NNW,5.8,-,N/A,,Clear,330,2013-03-25 17:00:00
4:30 AM,59.0,53.6,82,29.98,-9999.0,NNE,3.5,-,N/A,,Clear,20,2013-03-25 17:30:00
5:00 AM,59,53,76,29.98,,North,4.6,,,,,10,2013-03-25 18:00:00
5:00 AM,59.0,53.6,82,29.98,-9999.0,North,4.6,-,N/A,,Clear,10,2013-03-25 18:00:00
5:30 AM,59.0,53.6,82,29.98,-9999.0,North,6.9,-,N/A,,Clear,10,2013-03-25 18:30:00
6:00 AM,58,52,75,29.99,19,North,1.2,,,,Partly Cloudy,350,2013-03-25 19:00:00
6:00 AM,57.2,51.8,82,29.98,-9999.0,North,1.2,-,N/A,,Clear,350,2013-03-25 19:00:00
6:30 AM,60.8,51.8,72,29.98,-9999.0,North,11.5,-,N/A,,Clear,360,2013-03-25 19:30:00
7:00 AM,60.8,51.8,72,29.98,-9999.0,North,10.4,-,N/A,,Clear,360,2013-03-25 20:00:00
7:30 AM,59.0,51.8,77,29.98,-9999.0,North,9.2,-,N/A,,Clear,360,2013-03-25 20:30:00
8:00 AM,63,51,55,30.00,,North,11.5,,,,,350,2013-03-25 21:00:00
8:00 AM,62.6,51.8,68,30.01,-9999.0,North,11.5,-,N/A,,Clear,350,2013-03-25 21:00:00
8:30 AM,62.6,51.8,68,30.01,-9999.0,North,11.5,-,N/A,,Clear,360,2013-03-25 21:30:00
9:00 AM,67,51,45,30.00,16,North,17.3,,,,Partly Cloudy,0,2013-03-25 22:00:00
9:00 AM,66.2,50.0,56,30.01,-9999.0,North,17.3,-,N/A,,Clear,360,2013-03-25 22:00:00
9:30 AM,69.8,51.8,53,30.01,-9999.0,North,17.3,-,N/A,,Clear,360,2013-03-25 22:30:00
10:00 AM,71.6,50.0,46,29.98,-9999.0,North,18.4,-,N/A,,Clear,10,2013-03-25 23:00:00
10:30 AM,75.2,51.8,44,29.98,-9999.0,North,13.8,-,N/A,,Clear,10,2013-03-25 23:30:00
11:00 AM,77,50,28,29.97,,North,17.3,,,,,10,2013-03-26 00:00:00
11:00 AM,77.0,50.0,39,29.98,-9999.0,North,17.3,-,N/A,,Clear,10,2013-03-26 00:00:00
11:30 AM,80.6,50.0,34,29.95,-9999.0,North,16.1,-,N/A,,Clear,10,2013-03-26 00:30:00
12:00 PM,80,43,17,29.96,19,NNW,20.7,,,,Partly Cloudy,330,2013-03-26 01:00:00
12:00 PM,80.6,42.8,26,29.95,-9999.0,NNW,20.7,-,N/A,,Clear,330,2013-03-26 01:00:00
12:30 PM,82.4,44.6,26,29.95,-9999.0,NNW,19.6,-,N/A,,Clear,340,2013-03-26 01:30:00
1:00 PM,82.4,42.8,25,29.92,-9999.0,NNW,18.4,-,N/A,,Clear,330,2013-03-26 02:00:00
1:30 PM,84.2,44.6,25,29.92,-9999.0,NNW,16.1,-,N/A,,Clear,330,2013-03-26 02:30:00
2:00 PM,83,42,14,29.91,,North,20.7,,,,,350,2013-03-26 03:00:00
2:00 PM,84.2,42.8,23,29.92,-9999.0,North,20.7,-,N/A,,Clear,350,2013-03-26 03:00:00
2:06 PM,84.2,41.0,22,29.92,-9999.0,NNW,18.4,29.9,N/A,,Clear,340,2013-03-26 03:06:00
2:30 PM,84.2,41.0,22,29.89,-9999.0,NNW,19.6,-,N/A,,Clear,340,2013-03-26 03:30:00
3:00 PM,85,43,14,29.89,19,NNW,17.3,,,,Partly Cloudy,330,2013-03-26 04:00:00
3:00 PM,86.0,42.8,22,29.89,-9999.0,NNW,17.3,-,N/A,,Clear,330,2013-03-26 04:00:00
3:30 PM,86.0,44.6,23,29.89,-9999.0,NNW,17.3,-,N/A,,Clear,340,2013-03-26 04:30:00
4:00 PM,86.0,42.8,22,29.86,-9999.0,NNW,17.3,-,N/A,,Clear,340,2013-03-26 05:00:00
4:10 PM,86.0,42.8,22,29.86,-9999.0,North,17.3,29.9,N/A,,Clear,350,2013-03-26 05:10:00
4:30 PM,86.0,42.8,22,29.86,-9999.0,North,19.6,-,N/A,,Clear,350,2013-03-26 05:30:00
5:00 PM,86,42,13,29.86,,NNW,16.1,,,,,340,2013-03-26 06:00:00
5:00 PM,86.0,42.8,22,29.86,-9999.0,NNW,16.1,-,N/A,,Clear,340,2013-03-26 06:00:00
6:00 PM,85,42,13,29.86,19,NNW,12.7,,,,Partly Cloudy,340,2013-03-26 07:00:00
6:00 PM,86.0,42.8,22,29.86,-9999.0,NNW,12.7,-,N/A,,Clear,340,2013-03-26 07:00:00
7:00 PM,82.4,44.6,26,29.86,-9999.0,NNW,11.5,-,N/A,,Clear,340,2013-03-26 08:00:00
7:30 PM,80.6,44.6,28,29.89,-9999.0,North,9.2,-,N/A,,Clear,350,2013-03-26 08:30:00
8:00 PM,75,48,27,29.89,,North,8.1,,,,,10,2013-03-26 09:00:00
8:00 PM,75.2,48.2,38,29.89,-9999.0,North,8.1,-,N/A,,Clear,10,2013-03-26 09:00:00
8:30 PM,75.2,48.2,38,29.89,-9999.0,North,8.1,-,N/A,,Clear,360,2013-03-26 09:30:00
9:00 PM,74,48,29,29.90,25,North,10.4,,,,Partly Cloudy,0,2013-03-26 10:00:00
9:00 PM,73.4,48.2,41,29.89,-9999.0,North,10.4,-,N/A,,Clear,360,2013-03-26 10:00:00
9:30 PM,71.6,48.2,43,29.89,-9999.0,North,10.4,-,N/A,,Clear,360,2013-03-26 10:30:00
10:00 PM,69.8,50.0,49,29.89,-9999.0,North,11.5,-,N/A,,Clear,360,2013-03-26 11:00:00
10:30 PM,71.6,48.2,43,29.89,-9999.0,North,10.4,-,N/A,,Clear,360,2013-03-26 11:30:00
11:00 PM,74,47,28,29.90,,North,13.8,,,,,0,2013-03-26 12:00:00
11:00 PM,75.2,48.2,38,29.89,-9999.0,North,13.8,-,N/A,,Clear,360,2013-03-26 12:00:00
11:30 PM,75.2,46.4,36,29.89,-9999.0,North,16.1,-,N/A,,Clear,350,2013-03-26 12:30:00